Location: Silverdale
(47.6506°N, 122.6941°W)
Time: 00:08:44
(UTC+00:00)

A-11 Canister half - Pass Details

Date: 06 October 2022
Orbit: 1524 x 1685 km, 47.3° (Epoch: 05 December)

Event Time Altitude Azimuth Distance (km) Brightness Sun altitude
Rises 06:42:47 0° 287° (WNW) 4,742 12.0 -44.5°
Reaches altitude 10° 06:47:30 10° 267° (W) 3,784 11.2 -44.8°
Enters shadow 06:49:46 14° 253° (WSW) 3,502 10.9 -45.0°
